Location: Ar Ranvel
(48.3000°N, 4.8833°W)
Time: 14:37:52
(UTC+00:00)

SL-8 R/B - Pass Details

Date: 16 June 2021
Orbit: 656 x 667 km, 48.4° (Epoch: 29 July)

Event Time Altitude Azimuth Distance (km) Brightness Sun altitude
Rises 23:12:08 0° 285° (WNW) 2,991 7.5 -16.7°
Reaches altitude 10° 23:14:40 10° 276° (W) 2,074 6.5 -16.8°
Maximum altitude 23:18:55 32° 213° (SSW) 1,116 4.5 -17.0°
Enters shadow 23:19:53 30° 189° (S) 1,183 4.5 -17.0°
